Вернуться в каталог

COSMOS 643

АктивенВоенныеLEO
NORAD 7267·PAYLOAD·🇷🇺 Russia

Запущен Apr 23, 1974 с Plesetsk Cosmodrome

Loading…

Ближайшие Пролёты (ближайшие 24 часа)

TLE

СвежийSource: Space-Track

Эпоха: Sep 14, 2026, 13:15 UTC

1 07267U 74024C   26257.55251227  .00000001  00000-0  98348-4 0  9997
2 07267  74.0223 355.2512 0083070 267.3771 102.3941 12.61593796412901

Отслеживайте COSMOS 643 в реальном времени с AllMySat

Download on the App Store